Location: Unspecified
(0.0000°N, 0.0000°E)
Time: 03:16:54
(UTC+00:00)

AO-73 - Pass Details

Date: 19 October 2019
Orbit: 583 x 663 km, 97.6° (Epoch: 21 November)

Event Time Altitude Azimuth Distance (km) Brightness Sun altitude
Rises 18:57:19 0° 198° (SSW) 2,803 ? -17.8°
Reaches altitude 10° 19:00:08 10° 219° (SW) 1,901 ? -18.5°
Maximum altitude 19:02:44 16° 258° (WSW) 1,526 ? -19.1°
Drops below altitude 10° 19:05:21 10° 298° (WNW) 1,903 ? -19.8°
Sets 19:08:11 0° 319° (NW) 2,808 ? -20.5°
